Accueil
METAR-TAF:

METAR-TAF

Aéroports :

Diepholz, Allemagne

latitude: 52-35N, longitude: 008-21E, altitude: 39 m

Observation

Le bulletin a été fait il y a 26 minutes, à 08:20 UTC
Vent 5 kt de sud/sud-ouest
Température 21°C
Humidité 56%
Pression 1014 hPa
Visibilité 10 km ou plus
Nuages fragmentés à une hauteur de 28000 ft

METAR: ETND 230820Z 21005KT 9999 BKN280 21/12 Q1014 BLU+

Heure: 10:46 (08:46 UTC)


TAF: absent

Observations et prévisions météorologiques de plus de 4000 aéroports (messages METAR et TAF).

Les stations disponibles sont représentées par des disques jaunes et rouges sur la carte.

Passer la souris dessus pour voir le nom de la station.

Cliquer dessus pour voir les observations et prévisions météorologiques.

Pour changer de carte: cliquez sur les boutons verts avec une croix noire pour zoomer, sur le bouton vert avec un tiret pour effectuer un zoom arrière, ou sur les flèches vertes pour les cartes adjacentes.


METAR-TAF: